EW3708 Weather Reports


time (UTC)temp
F
wind
direction
speed
knots
gust
knots
rain 1hr
in
rain 24hr
in
rain mn
in
humidity
%
barometer
mb
20260504211525 69 251 3.5 7.8 0.00 0.00 0.00 35 1008.0
20260504210023 68 227 2.6 11.3 0.00 0.00 0.00 35 1008.0
20260504204549 68 115 4.3 8.7 0.00 0.00 0.00 36 1008.2
20260504203019 68 213 2.6 9.6 0.00 0.00 0.00 35 1008.4
20260504201517 68 159 4.3 10.4 0.00 0.00 0.00 36 1008.5
20260504200016 69 211 1.7 11.3 0.00 0.00 0.00 33 1008.6
20260504194513 69 147 5.2 10.4 0.00 0.00 0.00 34 1008.7
20260504193020 68 155 3.5 9.6 0.00 0.00 0.00 34 1008.9
20260504191510 67 182 6.1 12.2 0.00 0.00 0.00 36 1009.2
20260504190010 68 222 5.2 10.4 0.00 0.00 0.00 35 1009.2
20260504184506 69 165 4.3 10.4 0.00 0.00 0.00 34 1009.6
20260504183005 69 234 3.5 11.3 0.00 0.00 0.00 33 1009.5
20260504181504 68 201 3.5 12.2 0.00 0.00 0.00 35 1009.6
20260504180003 69 192 5.2 13.0 0.00 0.00 0.00 33 1009.7
20260504174501 68 134 6.1 13.9 0.00 0.00 0.00 34 1010.0
20260504173018 69 132 4.3 10.4 0.00 0.00 0.00 32 1009.9
20260504171541 67 168 2.6 6.1 0.00 0.00 0.00 34 1010.1
20260504081504 38 242 0.0 0.0 0.00 0.00 0.00 76 1013.0
20260504044548 41 243 0.0 0.0 0.00 0.00 0.00 72 1012.9
20260504043047 41 243 0.0 0.0 0.00 0.00 0.00 72 1012.7
20260504041542 42 243 0.0 0.0 0.00 0.00 0.00 70 1012.6
20260504040041 42 243 0.0 0.0 0.00 0.00 0.00 66 1012.5
20260504034541 42 243 0.0 0.9 0.00 0.00 0.00 62 1012.4
20260504033038 43 243 0.0 0.9 0.00 0.00 0.00 61 1012.4
20260504031537 44 243 0.0 0.9 0.00 0.00 0.00 59 1012.4
20260504030041 45 243 0.0 0.9 0.00 0.00 0.00 59 1012.3
20260504024536 45 243 0.0 0.9 0.00 0.00 0.00 56 1012.4
20260504023035 46 243 0.0 2.6 0.00 0.00 0.00 54 1012.4
20260504021535 46 244 0.0 0.9 0.00 0.00 0.00 51 1012.4
20260504020037 46 244 0.0 1.7 0.00 0.00 0.00 51 1012.4
20260504014543 47 238 0.0 1.7 0.00 0.00 0.00 51 1012.3
20260504013034 47 238 0.0 1.7 0.00 0.00 0.00 50 1012.0
20260504011535 48 238 0.0 1.7 0.00 0.00 0.00 49 1012.1
20260504010033 49 238 0.0 2.6 0.00 0.00 0.00 48 1011.9
20260504004532 50 238 0.0 1.7 0.00 0.00 0.00 47 1011.8
20260504003031 51 238 0.0 1.7 0.00 0.00 0.00 44 1011.7
20260504001533 51 238 0.9 2.6 0.00 0.00 0.00 42 1011.5
20260504000030 52 238 1.7 4.3 0.00 0.00 0.00 40 1011.4
20260503234543 53 244 0.9 3.5 0.00 0.00 0.00 39 1011.2
20260503233031 53 282 2.6 5.2 0.00 0.00 0.00 38 1011.0
20260503231529 54 232 1.7 4.3 0.00 0.00 0.00 38 1011.1
20260503230040 54 201 0.9 4.3 0.00 0.00 0.00 37 1010.9
20260503224528 54 217 1.7 6.1 0.00 0.00 0.00 36 1010.9
20260503223028 55 227 2.6 7.0 0.00 0.00 0.00 35 1010.9
20260503221527 54 281 2.6 5.2 0.00 0.00 0.00 35 1010.9
20260503220042 54 247 1.7 5.2 0.00 0.00 0.00 34 1011.0
20260503214526 54 227 2.6 7.8 0.00 0.00 0.00 34 1010.8
20260503213025 54 240 3.5 7.8 0.00 0.00 0.00 34 1010.7